This is the latest recevied weather packets stored in our database for station/object NA9VY-8. If no packets are shown the sender has not sent any weather packets the latest 10 day(s).
| Time | Temp. | Humidity | Pressure | Rain* | Wind** | Luminosity | Snow |
|---|---|---|---|---|---|---|---|
| 1777549915 | 6.11° C | 92% | 1023.2 hPa | 0 mm | - | 53 W/m² | - |
| 1777549612 | 5.56° C | 93% | 1023.1 hPa | 0 mm | - | 46 W/m² | - |
| 1777549307 | 5.56° C | 93% | 1022.9 hPa | 0 mm | - | 40 W/m² | - |
| 1777549005 | 5.56° C | 93% | 1022.8 hPa | 0 mm | - | 35 W/m² | - |
| 1777548701 | 5.56° C | 94% | 1022.6 hPa | 0 mm | - | 31 W/m² | - |
| 1777548399 | 5° C | 94% | 1022.6 hPa | 0 mm | - | 26 W/m² | - |
| 1777548096 | 4.44° C | 95% | 1022.5 hPa | 0 mm | - | 20 W/m² | - |
| 1777547791 | 4.44° C | 95% | 1022.5 hPa | 0 mm | - | 12 W/m² | - |
| 1777547487 | 4.44° C | 95% | 1022.5 hPa | 0 mm | - | 10 W/m² | - |
| 1777547185 | 4.44° C | 95% | 1022.4 hPa | 0 mm | - | 7 W/m² | - |
| 1777546882 | 4.44° C | 94% | 1022.5 hPa | 0 mm | - | 4 W/m² | - |
| 1777546579 | 4.44° C | 94% | 1022.3 hPa | 0 mm | - | 1 W/m² | - |
| 1777546276 | 5° C | 94% | 1022.3 hPa | 0 mm | - | 1 W/m² | - |
| 1777545973 | 5° C | 94% | 1022.2 hPa | 0 mm | - | 0 W/m² | - |
| 1777545669 | 5° C | 94% | 1022.1 hPa | 0 mm | - | 0 W/m² | - |
| 1777545366 | 5° C | 94% | 1022.1 hPa | 0 mm | - | 0 W/m² | - |
| 1777545063 | 5° C | 94% | 1022.1 hPa | 0 mm | - | 0 W/m² | - |
| 1777544760 | 5° C | 94% | 1022 hPa | 0 mm | - | 0 W/m² | - |
| 1777544455 | 5° C | 94% | 1022 hPa | 0 mm | - | 0 W/m² | - |
| 1777544152 | 5° C | 94% | 1022.1 hPa | 0 mm | - | 0 W/m² | - |
| 1777543850 | 5° C | 95% | 1022.2 hPa | 0 mm | - | 0 W/m² | - |
| 1777543546 | 4.44° C | 95% | 1022.1 hPa | 0 mm | - | 0 W/m² | - |
| 1777543242 | 4.44° C | 96% | 1022.3 hPa | 0 mm | - | 0 W/m² | - |
| 1777542938 | 4.44° C | 97% | 1022.1 hPa | 0 mm | - | 0 W/m² | - |
| 1777542634 | 4.44° C | 97% | 1022 hPa | 0 mm | - | 0 W/m² | - |
* Rain latest hour (hover to see other rain measurements)
** Current wind speed in m/s (hover to see current wind gust speed)